TimeCDT,TemperatureF,Dew PointF,Humidity,Sea Level PressureIn,VisibilityMPH,Wind Direction,Wind SpeedMPH,Gust SpeedMPH,PrecipitationIn,Events,Conditions,WindDirDegrees,DateUTC
12:12 AM,30.2,30.2,100,29.80,1.0,NW,11.5,-,0.01,Snow,Light Snow,310,2013-04-11 05:12:00
12:22 AM,30.2,30.2,100,29.80,1.5,NW,10.4,-,0.02,Snow,Light Snow,310,2013-04-11 05:22:00
12:33 AM,30.2,30.2,100,29.80,2.5,NW,12.7,-,0.02,Snow,Light Snow,320,2013-04-11 05:33:00
12:52 AM,30.9,30.0,96,29.83,2.5,NW,11.5,-,0.03,Snow,Light Snow,320,2013-04-11 05:52:00
1:16 AM,30.2,30.2,100,29.78,1.8,NW,11.5,-,0.01,Snow,Light Snow,320,2013-04-11 06:16:00
1:21 AM,30.2,30.2,100,29.78,2.0,NW,12.7,-,0.01,Snow,Light Snow,320,2013-04-11 06:21:00
1:32 AM,30.2,30.2,100,29.78,1.8,NW,10.4,-,0.02,Snow,Light Snow,320,2013-04-11 06:32:00
1:50 AM,30.2,30.2,100,29.76,2.5,NW,15.0,-,0.02,Snow,Light Snow,320,2013-04-11 06:50:00
1:52 AM,30.9,30.0,96,29.80,2.5,NW,12.7,-,0.02,Snow,Light Snow,320,2013-04-11 06:52:00
1:59 AM,30.2,30.2,100,29.76,4.0,NW,13.8,-,0.00,Snow,Light Snow,320,2013-04-11 06:59:00
2:27 AM,30.2,30.2,100,29.74,2.0,NNW,10.4,-,0.01,Snow,Light Snow,330,2013-04-11 07:27:00
2:36 AM,30.2,30.2,100,29.74,1.8,NW,11.5,-,0.02,Snow,Light Snow,320,2013-04-11 07:36:00
2:52 AM,30.9,30.0,96,29.76,1.8,NNW,8.1,-,0.03,Snow,Light Snow,330,2013-04-11 07:52:00
2:59 AM,30.2,30.2,100,29.73,2.0,NNW,9.2,-,0.00,Snow,Light Snow,340,2013-04-11 07:59:00
3:06 AM,30.2,30.2,100,29.73,2.5,NNW,9.2,-,0.00,Snow,Light Snow,330,2013-04-11 08:06:00
3:15 AM,30.2,30.2,100,29.73,4.0,NNW,8.1,-,0.00,Snow,Light Snow,330,2013-04-11 08:15:00
3:49 AM,30.2,28.4,93,29.70,4.0,NW,5.8,-,0.00,Snow,Light Snow,310,2013-04-11 08:49:00
3:52 AM,30.0,28.9,96,29.73,4.0,NW,5.8,-,0.00,,Overcast,310,2013-04-11 08:52:00
4:52 AM,30.0,28.9,96,29.70,8.0,WNW,6.9,-,N/A,,Overcast,300,2013-04-11 09:52:00
5:52 AM,30.0,28.9,96,29.67,9.0,WNW,8.1,-,N/A,,Overcast,290,2013-04-11 10:52:00
6:52 AM,30.9,30.0,96,29.67,9.0,WNW,6.9,-,N/A,,Overcast,290,2013-04-11 11:52:00
7:41 AM,30.2,30.2,100,29.65,2.0,West,4.6,-,N/A,,Overcast,280,2013-04-11 12:41:00
7:52 AM,30.9,30.0,96,29.68,1.5,WNW,5.8,-,N/A,,Overcast,300,2013-04-11 12:52:00
8:52 AM,30.0,28.9,96,29.67,1.0,West,6.9,-,N/A,,Overcast,270,2013-04-11 13:52:00
9:52 AM,30.2,30.2,100,29.63,3.0,West,9.2,-,N/A,,Overcast,270,2013-04-11 14:52:00
10:40 AM,32.0,30.2,93,29.63,3.0,West,8.1,-,N/A,,Overcast,280,2013-04-11 15:40:00
10:52 AM,32.0,30.9,96,29.67,3.0,West,8.1,-,N/A,,Overcast,280,2013-04-11 15:52:00
11:04 AM,32.0,30.2,93,29.64,1.5,West,9.2,-,0.00,Snow,Light Snow,280,2013-04-11 16:04:00
11:40 AM,33.8,30.2,87,29.63,1.5,WNW,9.2,-,0.00,Snow,Light Snow,290,2013-04-11 16:40:00
11:52 AM,33.1,30.9,92,29.67,1.5,WNW,10.4,-,0.00,Snow,Light Snow,290,2013-04-11 16:52:00
12:52 PM,33.1,30.9,92,29.65,0.8,WNW,11.5,-,0.03,Snow,Light Snow,290,2013-04-11 17:52:00
1:29 PM,33.8,30.2,87,29.61,0.8,NW,11.5,-,0.02,Snow,Light Snow,310,2013-04-11 18:29:00
1:52 PM,33.1,30.9,92,29.64,1.8,WNW,12.7,-,0.03,Snow,Light Snow,300,2013-04-11 18:52:00
2:52 PM,34.0,32.0,92,29.64,1.5,NW,12.7,-,0.00,Snow,Light Snow,310,2013-04-11 19:52:00
3:31 PM,33.8,32.0,93,29.61,2.0,NW,12.7,-,0.02,Snow,Light Snow,310,2013-04-11 20:31:00
3:52 PM,35.1,33.1,92,29.65,2.5,NW,11.5,-,0.02,Snow,Light Snow,310,2013-04-11 20:52:00
4:46 PM,35.6,33.8,93,29.63,6.0,NW,17.3,21.9,0.01,,Overcast,320,2013-04-11 21:46:00
4:52 PM,35.1,33.1,92,29.66,4.0,NW,16.1,-,0.01,,Overcast,320,2013-04-11 21:52:00
5:52 PM,34.0,32.0,92,29.67,3.0,NW,17.3,-,0.00,Snow,Light Snow,320,2013-04-11 22:52:00
6:05 PM,35.6,32.0,87,29.64,4.0,NW,15.0,-,0.00,Snow,Light Snow,320,2013-04-11 23:05:00
6:21 PM,33.8,32.0,93,29.64,4.0,NW,13.8,20.7,0.00,Snow,Light Snow,310,2013-04-11 23:21:00
6:45 PM,33.8,30.2,87,29.64,2.5,NW,16.1,-,0.00,Snow,Light Snow,310,2013-04-11 23:45:00
6:52 PM,33.1,30.9,92,29.68,4.0,WNW,15.0,-,0.00,Snow,Light Snow,300,2013-04-11 23:52:00
6:59 PM,33.8,30.2,87,29.65,2.5,NW,15.0,-,0.00,Snow,Light Snow,310,2013-04-11 23:59:00
7:19 PM,33.8,30.2,87,29.65,3.0,NW,15.0,24.2,0.00,Snow,Light Snow,310,2013-04-12 00:19:00
7:52 PM,32.0,30.0,92,29.68,10.0,NW,18.4,-,0.00,,Overcast,310,2013-04-12 00:52:00
8:52 PM,32.0,30.0,92,29.69,10.0,NW,18.4,27.6,N/A,,Overcast,310,2013-04-12 01:52:00
9:02 PM,32.0,30.2,93,29.66,10.0,NW,13.8,25.3,N/A,,Overcast,320,2013-04-12 02:02:00
9:52 PM,32.0,28.9,88,29.71,10.0,NW,17.3,-,N/A,,Overcast,320,2013-04-12 02:52:00
10:52 PM,32.0,28.9,88,29.73,10.0,NW,13.8,-,N/A,,Overcast,310,2013-04-12 03:52:00
11:52 PM,32.0,28.9,88,29.74,10.0,NW,15.0,-,N/A,,Overcast,310,2013-04-12 04:52:00